CES550 RKSI-ZSYT

Flight info

Callsign CES550
Flight time 0h 58m
Altitude 32000
Route BINIL3H BINIL Y697 AGAVO/K0696S0660 A591 IKEKA W4 FZ DCT
Aircraft A320/M-SDE3FGHIRWY/LB1

Departure

Time 2026-05-05 03:24
Airport Incheon International Airport (RKSI)

Arrival

Time 2026-05-05 04:22
Airport Yantai Penglai International Airport (ZSYT)
Time Latitude Longitude Altitude Speed Heading
2026-05-05 02:48 37.45393 126.44270 29 ft 0 kts 326°
2026-05-05 03:07 37.45388 126.44274 29 ft 2 kts 326°
2026-05-05 03:07 37.45376 126.44284 29 ft 2 kts 326°
2026-05-05 03:07 37.45363 126.44295 29 ft 2 kts 326°
2026-05-05 03:08 37.45355 126.44302 29 ft 1 kts 326°
2026-05-05 03:08 37.45344 126.44314 29 ft 2 kts 301°
2026-05-05 03:08 37.45338 126.44331 29 ft 2 kts 282°
2026-05-05 03:08 37.45337 126.44350 29 ft 2 kts 262°
2026-05-05 03:09 37.45341 126.44369 29 ft 2 kts 241°
2026-05-05 03:09 37.45345 126.44376 29 ft 1 kts 230°
2026-05-05 03:09 37.45347 126.44379 29 ft 0 kts 233°
2026-05-05 03:14 37.45298 126.44294 29 ft 21 kts 234°
2026-05-05 03:15 37.45217 126.44150 29 ft 11 kts 234°
2026-05-05 03:15 37.45193 126.44106 29 ft 5 kts 238°
2026-05-05 03:15 37.45205 126.44001 29 ft 17 kts 322°
2026-05-05 03:15 37.45306 126.43912 29 ft 17 kts 325°
2026-05-05 03:16 37.45365 126.43860 29 ft 8 kts 324°
2026-05-05 03:16 37.45411 126.43819 29 ft 16 kts 324°
2026-05-05 03:16 37.45440 126.43722 29 ft 13 kts 242°
2026-05-05 03:16 37.45397 126.43644 29 ft 10 kts 234°
2026-05-05 03:17 37.45366 126.43589 29 ft 7 kts 236°
2026-05-05 03:17 37.45369 126.43519 29 ft 12 kts 314°
2026-05-05 03:17 37.45449 126.43446 29 ft 14 kts 324°
2026-05-05 03:17 37.45537 126.43368 29 ft 15 kts 324°
2026-05-05 03:18 37.45630 126.43285 29 ft 16 kts 324°
2026-05-05 03:18 37.45713 126.43211 29 ft 14 kts 324°
2026-05-05 03:18 37.45795 126.43175 29 ft 9 kts 18°
2026-05-05 03:18 37.45879 126.43218 29 ft 17 kts 338°
2026-05-05 03:19 37.46082 126.43037 29 ft 19 kts 324°
2026-05-05 03:19 37.46225 126.42910 29 ft 27 kts 324°
2026-05-05 03:19 37.46379 126.42773 29 ft 26 kts 324°
2026-05-05 03:20 37.46529 126.42638 29 ft 25 kts 324°
2026-05-05 03:20 37.46673 126.42510 29 ft 25 kts 324°
2026-05-05 03:20 37.46786 126.42409 29 ft 16 kts 324°
2026-05-05 03:20 37.46882 126.42323 29 ft 17 kts 324°
2026-05-05 03:21 37.47003 126.42215 29 ft 30 kts 324°
2026-05-05 03:21 37.47165 126.42071 29 ft 27 kts 324°
2026-05-05 03:21 37.47318 126.41934 29 ft 20 kts 324°
2026-05-05 03:21 37.47403 126.41833 29 ft 14 kts 280°
2026-05-05 03:22 37.47359 126.41725 29 ft 14 kts 235°
2026-05-05 03:22 37.47297 126.41616 29 ft 15 kts 227°
2026-05-05 03:22 37.47205 126.41622 29 ft 15 kts 141°
2026-05-05 03:22 37.47158 126.41664 29 ft 4 kts 144°
2026-05-05 03:23 37.46998 126.41808 29 ft 61 kts 144°
2026-05-05 03:23 37.46471 126.42278 29 ft 122 kts 145°
2026-05-05 03:23 37.45633 126.43033 61 ft 169 kts 146°
2026-05-05 03:23 37.44638 126.43946 453 ft 182 kts 146°
2026-05-05 03:24 37.43600 126.44831 1091 ft 185 kts 152°
2026-05-05 03:24 37.42475 126.45589 1866 ft 181 kts 155°
2026-05-05 03:24 37.41372 126.46336 2339 ft 188 kts 153°
2026-05-05 03:24 37.40173 126.47192 2666 ft 205 kts 152°
2026-05-05 03:25 37.38853 126.48086 2958 ft 225 kts 158°
2026-05-05 03:25 37.37338 126.48801 3331 ft 242 kts 165°
2026-05-05 03:25 37.35678 126.49392 3851 ft 255 kts 166°
2026-05-05 03:25 37.33940 126.49980 4495 ft 260 kts 166°
2026-05-05 03:26 37.32188 126.50572 4878 ft 262 kts 167°
2026-05-05 03:26 37.30398 126.51176 5351 ft 270 kts 167°
2026-05-05 03:26 37.28547 126.51493 6219 ft 268 kts 188°
2026-05-05 03:26 37.26840 126.50703 7052 ft 266 kts 216°
2026-05-05 03:27 37.25473 126.49162 7817 ft 270 kts 224°
2026-05-05 03:27 37.24105 126.47512 8560 ft 275 kts 223°
2026-05-05 03:27 37.22721 126.45863 9290 ft 280 kts 223°
2026-05-05 03:27 37.21287 126.44167 9782 ft 283 kts 223°
2026-05-05 03:28 37.19863 126.42490 9959 ft 285 kts 223°
2026-05-05 03:28 37.18421 126.40795 9972 ft 284 kts 222°
2026-05-05 03:28 37.16972 126.39095 9963 ft 283 kts 222°
2026-05-05 03:28 37.15528 126.37403 9974 ft 283 kts 222°
2026-05-05 03:29 37.14083 126.35710 9990 ft 283 kts 222°
2026-05-05 03:29 37.12645 126.34027 9979 ft 283 kts 222°
2026-05-05 03:29 37.11322 126.32208 9957 ft 285 kts 237°
2026-05-05 03:29 37.10535 126.29932 9979 ft 289 kts 256°
2026-05-05 03:30 37.10343 126.27395 10299 ft 302 kts 268°
2026-05-05 03:30 37.10331 126.24690 10632 ft 320 kts 269°
2026-05-05 03:30 37.10331 126.21839 10992 ft 335 kts 269°
2026-05-05 03:30 37.10322 126.18907 11557 ft 341 kts 268°
2026-05-05 03:31 37.10302 126.15932 12245 ft 345 kts 268°
2026-05-05 03:31 37.10281 126.12910 12855 ft 349 kts 270°
2026-05-05 03:31 37.10523 126.09864 13457 ft 354 kts 281°
2026-05-05 03:31 37.11193 126.06925 14044 ft 358 kts 291°
2026-05-05 03:32 37.12156 126.04034 14635 ft 361 kts 294°
2026-05-05 03:32 37.13169 126.01162 15222 ft 364 kts 294°
2026-05-05 03:32 37.14187 125.98280 15852 ft 366 kts 294°
2026-05-05 03:32 37.15210 125.95353 16429 ft 368 kts 294°
2026-05-05 03:33 37.16229 125.92415 16977 ft 371 kts 294°
2026-05-05 03:33 37.17255 125.89440 17538 ft 373 kts 294°
2026-05-05 03:33 37.18276 125.86466 18087 ft 375 kts 294°
2026-05-05 03:33 37.19303 125.83466 18656 ft 376 kts 294°
2026-05-05 03:34 37.20336 125.80449 19212 ft 378 kts 294°
2026-05-05 03:34 37.21369 125.77431 19750 ft 379 kts 294°
2026-05-05 03:34 37.22410 125.74389 20275 ft 381 kts 294°
2026-05-05 03:34 37.23453 125.71339 20759 ft 383 kts 294°
2026-05-05 03:35 37.24497 125.68281 21254 ft 385 kts 294°
2026-05-05 03:35 37.25550 125.65188 21736 ft 387 kts 294°
2026-05-05 03:35 37.26612 125.62069 22209 ft 388 kts 294°
2026-05-05 03:35 37.27657 125.58996 22696 ft 389 kts 294°
2026-05-05 03:36 37.28724 125.55851 23232 ft 389 kts 294°
2026-05-05 03:36 37.29779 125.52740 23696 ft 390 kts 294°
2026-05-05 03:36 37.30829 125.49638 24104 ft 392 kts 294°
2026-05-05 03:36 37.31897 125.46483 24506 ft 394 kts 294°
2026-05-05 03:37 37.32977 125.43289 24894 ft 397 kts 294°
2026-05-05 03:37 37.34045 125.40128 25351 ft 397 kts 294°
2026-05-05 03:37 37.35123 125.36927 25876 ft 395 kts 294°
2026-05-05 03:37 37.36176 125.33799 26389 ft 394 kts 294°
2026-05-05 03:38 37.37237 125.30643 26834 ft 394 kts 293°
2026-05-05 03:38 37.38307 125.27455 27207 ft 396 kts 292°
2026-05-05 03:38 37.39161 125.24154 27562 ft 399 kts 284°
2026-05-05 03:38 37.39592 125.20722 27924 ft 402 kts 275°
2026-05-05 03:39 37.39648 125.17193 28093 ft 404 kts 270°
2026-05-05 03:39 37.39584 125.13679 28095 ft 404 kts 270°
2026-05-05 03:39 37.39423 125.06631 28091 ft 404 kts 270°
2026-05-05 03:40 37.39280 124.99557 28088 ft 404 kts 270°
2026-05-05 03:40 37.39147 124.92561 28091 ft 404 kts 270°
2026-05-05 03:41 37.39010 124.85496 28092 ft 404 kts 270°
2026-05-05 03:41 37.38867 124.78487 28088 ft 404 kts 270°
2026-05-05 03:42 37.38718 124.71409 28083 ft 404 kts 270°
2026-05-05 03:42 37.38569 124.64403 28085 ft 403 kts 270°
2026-05-05 03:43 37.38413 124.57396 28082 ft 403 kts 270°
2026-05-05 03:43 37.38253 124.50343 28083 ft 403 kts 270°
2026-05-05 03:44 37.37850 124.43341 28078 ft 405 kts 259°
2026-05-05 03:44 37.36994 124.40007 28078 ft 406 kts 248°
2026-05-05 03:44 37.35657 124.36897 28079 ft 407 kts 240°
2026-05-05 03:45 37.32624 124.30895 28076 ft 406 kts 239°
2026-05-05 03:45 37.29608 124.24952 28073 ft 405 kts 239°
2026-05-05 03:46 37.26585 124.18948 28076 ft 406 kts 239°
2026-05-05 03:46 37.23576 124.12972 28049 ft 406 kts 239°
2026-05-05 03:47 37.22026 124.10006 27780 ft 405 kts 238°
2026-05-05 03:47 37.20466 124.07096 27516 ft 403 kts 237°
2026-05-05 03:47 37.18914 124.04210 27249 ft 400 kts 237°
2026-05-05 03:47 37.17383 124.01352 26989 ft 398 kts 238°
2026-05-05 03:48 37.15855 123.98471 26728 ft 397 kts 238°
2026-05-05 03:48 37.14353 123.95561 26463 ft 397 kts 239°
2026-05-05 03:48 37.12868 123.92665 26197 ft 397 kts 239°
2026-05-05 03:48 37.11371 123.89750 25934 ft 398 kts 239°
2026-05-05 03:49 37.09870 123.86834 25672 ft 398 kts 239°
2026-05-05 03:49 37.08379 123.83942 25415 ft 398 kts 239°
2026-05-05 03:49 37.06879 123.81040 25153 ft 399 kts 239°
2026-05-05 03:49 37.05378 123.78137 24897 ft 399 kts 238°
2026-05-05 03:50 37.03861 123.75207 24643 ft 400 kts 239°
2026-05-05 03:50 37.02360 123.72310 24390 ft 400 kts 239°
2026-05-05 03:50 37.00834 123.69366 24133 ft 401 kts 239°
2026-05-05 03:50 36.99332 123.66470 23878 ft 401 kts 238°
2026-05-05 03:51 36.97818 123.63557 23624 ft 400 kts 238°
2026-05-05 03:51 36.96298 123.60635 23370 ft 398 kts 238°
2026-05-05 03:51 36.94799 123.57756 23118 ft 397 kts 238°
2026-05-05 03:51 36.93292 123.54861 22863 ft 395 kts 238°
2026-05-05 03:52 36.91807 123.52012 22613 ft 394 kts 238°
2026-05-05 03:52 36.90310 123.49139 22360 ft 393 kts 238°
2026-05-05 03:52 36.88834 123.46311 22109 ft 392 kts 238°
2026-05-05 03:52 36.87355 123.43481 21859 ft 391 kts 238°
2026-05-05 03:53 36.85865 123.40636 21607 ft 390 kts 238°
2026-05-05 03:53 36.84457 123.37776 21347 ft 388 kts 246°
2026-05-05 03:53 36.83769 123.34565 21081 ft 385 kts 268°
2026-05-05 03:53 36.84042 123.31258 20835 ft 382 kts 286°
2026-05-05 03:54 36.84817 123.28111 20590 ft 381 kts 289°
2026-05-05 03:54 36.85616 123.24953 20339 ft 381 kts 288°
2026-05-05 03:54 36.86401 123.21812 20088 ft 380 kts 288°
2026-05-05 03:54 36.87175 123.18678 19840 ft 378 kts 288°
2026-05-05 03:55 36.87937 123.15558 19595 ft 377 kts 288°
2026-05-05 03:55 36.88697 123.12428 19343 ft 376 kts 288°
2026-05-05 03:55 36.89449 123.09319 19092 ft 375 kts 288°
2026-05-05 03:55 36.90199 123.06206 18844 ft 374 kts 288°
2026-05-05 03:56 36.90942 123.03112 18597 ft 373 kts 288°
2026-05-05 03:56 36.91687 123.00007 18343 ft 372 kts 288°
2026-05-05 03:56 36.92419 122.96948 18099 ft 372 kts 288°
2026-05-05 03:56 36.93165 122.93830 17846 ft 371 kts 288°
2026-05-05 03:57 36.93900 122.90756 17591 ft 371 kts 288°
2026-05-05 03:57 36.94635 122.87676 17337 ft 370 kts 288°
2026-05-05 03:57 36.95357 122.84648 17099 ft 368 kts 288°
2026-05-05 03:57 36.96093 122.81554 16843 ft 367 kts 288°
2026-05-05 03:58 36.96810 122.78537 16595 ft 365 kts 287°
2026-05-05 03:58 36.97529 122.75510 16349 ft 363 kts 287°
2026-05-05 03:58 36.98241 122.72505 16098 ft 362 kts 287°
2026-05-05 03:58 36.98961 122.69466 15845 ft 361 kts 287°
2026-05-05 03:59 36.99664 122.66493 15602 ft 359 kts 287°
2026-05-05 03:59 37.00373 122.63491 15343 ft 358 kts 287°
2026-05-05 03:59 37.01070 122.60532 15091 ft 358 kts 287°
2026-05-05 03:59 37.01770 122.57555 14870 ft 356 kts 287°
2026-05-05 04:00 37.02472 122.54570 14826 ft 355 kts 287°
2026-05-05 04:00 37.03164 122.51625 14825 ft 356 kts 287°
2026-05-05 04:00 37.03863 122.48645 14820 ft 356 kts 287°
2026-05-05 04:00 37.04559 122.45676 14821 ft 357 kts 287°
2026-05-05 04:01 37.05254 122.42708 14813 ft 357 kts 287°
2026-05-05 04:01 37.05954 122.39718 14814 ft 357 kts 287°
2026-05-05 04:01 37.06643 122.36765 14819 ft 357 kts 287°
2026-05-05 04:01 37.07475 122.33872 14810 ft 355 kts 298°
2026-05-05 04:02 37.08916 122.31385 14804 ft 354 kts 315°
2026-05-05 04:02 37.10818 122.29431 14808 ft 353 kts 324°
2026-05-05 04:02 37.12820 122.27616 14807 ft 353 kts 325°
2026-05-05 04:02 37.14823 122.25813 14808 ft 353 kts 324°
2026-05-05 04:03 37.16722 122.23932 14810 ft 353 kts 316°
2026-05-05 04:03 37.18304 122.21550 14811 ft 354 kts 303°
2026-05-05 04:03 37.19415 122.18838 14805 ft 355 kts 291°
2026-05-05 04:03 37.20218 122.15907 14805 ft 355 kts 288°
2026-05-05 04:04 37.20964 122.12962 14803 ft 355 kts 288°
2026-05-05 04:04 37.21709 122.09999 14804 ft 356 kts 288°
2026-05-05 04:04 37.22452 122.07062 14800 ft 356 kts 288°
2026-05-05 04:04 37.23210 122.04083 14805 ft 356 kts 288°
2026-05-05 04:05 37.23965 122.01133 14808 ft 356 kts 288°
2026-05-05 04:05 37.24726 121.98172 14795 ft 356 kts 288°
2026-05-05 04:05 37.25483 121.95225 14787 ft 356 kts 288°
2026-05-05 04:05 37.26234 121.92300 14782 ft 356 kts 288°
2026-05-05 04:06 37.27000 121.89312 14787 ft 356 kts 288°
2026-05-05 04:06 37.27755 121.86367 14785 ft 355 kts 288°
2026-05-05 04:06 37.28505 121.83433 14780 ft 355 kts 288°
2026-05-05 04:06 37.29252 121.80512 14779 ft 355 kts 288°
2026-05-05 04:07 37.30005 121.77559 14782 ft 356 kts 288°
2026-05-05 04:07 37.30761 121.74597 14791 ft 355 kts 288°
2026-05-05 04:07 37.31510 121.71660 14795 ft 355 kts 288°
2026-05-05 04:07 37.32270 121.68678 14788 ft 356 kts 288°
2026-05-05 04:08 37.33023 121.65720 14781 ft 356 kts 288°
2026-05-05 04:08 37.33770 121.62780 14782 ft 357 kts 288°
2026-05-05 04:08 37.34526 121.59798 14778 ft 356 kts 288°
2026-05-05 04:08 37.35268 121.56869 14777 ft 356 kts 288°
2026-05-05 04:09 37.36018 121.53905 14766 ft 355 kts 288°
2026-05-05 04:09 37.36765 121.50950 14759 ft 355 kts 288°
2026-05-05 04:09 37.37513 121.47983 14752 ft 356 kts 287°
2026-05-05 04:09 37.38253 121.45045 14747 ft 351 kts 287°
2026-05-05 04:10 37.38975 121.42176 14749 ft 336 kts 287°
2026-05-05 04:10 37.39664 121.39437 14745 ft 322 kts 287°
2026-05-05 04:10 37.40333 121.36780 14737 ft 318 kts 287°
2026-05-05 04:10 37.41006 121.34129 14332 ft 321 kts 287°
2026-05-05 04:11 37.41685 121.31478 13872 ft 323 kts 287°
2026-05-05 04:11 37.42372 121.28791 13508 ft 321 kts 287°
2026-05-05 04:11 37.43048 121.26146 13235 ft 317 kts 287°
2026-05-05 04:11 37.43714 121.23527 12952 ft 313 kts 287°
2026-05-05 04:12 37.44378 121.20916 12674 ft 309 kts 288°
2026-05-05 04:12 37.45116 121.18439 12388 ft 305 kts 297°
2026-05-05 04:12 37.46291 121.16205 12073 ft 302 kts 310°
2026-05-05 04:12 37.47665 121.14265 11780 ft 299 kts 313°
2026-05-05 04:13 37.49079 121.12347 11483 ft 296 kts 313°
2026-05-05 04:13 37.50470 121.10452 11179 ft 293 kts 312°
2026-05-05 04:13 37.51858 121.08601 10867 ft 291 kts 319°
2026-05-05 04:13 37.53626 121.07420 10516 ft 290 kts 349°
2026-05-05 04:14 37.55590 121.07602 10190 ft 290 kts 20°
2026-05-05 04:14 37.57247 121.09008 9877 ft 289 kts 43°
2026-05-05 04:14 37.58687 121.10792 9567 ft 287 kts 42°
2026-05-05 04:14 37.60097 121.12477 9335 ft 273 kts 41°
2026-05-05 04:15 37.61455 121.14069 8969 ft 264 kts 40°
2026-05-05 04:15 37.62805 121.15630 8419 ft 263 kts 40°
2026-05-05 04:15 37.64141 121.17167 7847 ft 263 kts 40°
2026-05-05 04:15 37.65503 121.18731 7263 ft 262 kts 40°
2026-05-05 04:16 37.66846 121.20274 6694 ft 262 kts 40°
2026-05-05 04:16 37.68167 121.21793 6135 ft 261 kts 40°
2026-05-05 04:16 37.69574 121.23235 5541 ft 260 kts 25°
2026-05-05 04:16 37.71304 121.23656 4967 ft 252 kts 345°
2026-05-05 04:17 37.72791 121.22676 4720 ft 244 kts 308°
2026-05-05 04:17 37.73821 121.20956 4729 ft 245 kts 302°
2026-05-05 04:17 37.74810 121.19222 4726 ft 246 kts 304°
2026-05-05 04:17 37.75866 121.17541 4644 ft 242 kts 306°
2026-05-05 04:18 37.76960 121.15926 4309 ft 244 kts 307°
2026-05-05 04:18 37.78086 121.14284 3967 ft 244 kts 302°
2026-05-05 04:18 37.78648 121.12390 3753 ft 227 kts 265°
2026-05-05 04:18 37.78148 121.10609 3490 ft 212 kts 225°
2026-05-05 04:19 37.76970 121.09529 3038 ft 212 kts 211°
2026-05-05 04:19 37.75729 121.08520 2578 ft 211 kts 214°
2026-05-05 04:19 37.74599 121.07452 2405 ft 197 kts 217°
2026-05-05 04:19 37.73576 121.06396 2307 ft 181 kts 218°
2026-05-05 04:20 37.72670 121.05434 2404 ft 161 kts 218°
2026-05-05 04:20 37.71876 121.04548 2277 ft 146 kts 221°
2026-05-05 04:20 37.71181 121.03709 2092 ft 135 kts 218°
2026-05-05 04:20 37.70479 121.02920 1756 ft 134 kts 218°
2026-05-05 04:21 37.69810 121.02093 1305 ft 138 kts 219°
2026-05-05 04:21 37.69086 121.01299 953 ft 134 kts 217°
2026-05-05 04:21 37.68384 121.00543 601 ft 133 kts 218°
2026-05-05 04:21 37.67696 120.99786 336 ft 128 kts 217°
2026-05-05 04:22 37.67029 120.99037 189 ft 128 kts 217°
2026-05-05 04:22 37.66418 120.98341 160 ft 99 kts 221°
2026-05-05 04:22 37.66038 120.97904 160 ft 49 kts 221°
2026-05-05 04:22 37.65854 120.97741 160 ft 14 kts 202°